JST135 YBCS-NZCH

Flight info

Callsign JST135
Flight time 4h 55m
Altitude 33000
Route AKROM1 AKROM Y177 BN J208 SCOTT Y76 SIFRA/N0459F350 L503 KABKA BELEE7B
Aircraft A320/M-SDE3FGHIRWY/LB1

Departure

Time 2026-04-28 15:22
Airport Cairns International Airport (YBCS)

Arrival

Time 2026-04-28 20:17
Airport Christchurch International Airport (NZCH)
Time Latitude Longitude Altitude Speed Heading
2026-04-28 14:40 -16.87213 145.75532 17 ft 0 kts 156°
2026-04-28 14:46 -16.87212 145.75532 16 ft 0 kts 156°
2026-04-28 15:13 -16.87196 145.75525 43 ft 4 kts 159°
2026-04-28 15:13 -16.87170 145.75516 18 ft 4 kts 164°
2026-04-28 15:13 -16.87144 145.75510 18 ft 4 kts 181°
2026-04-28 15:13 -16.87123 145.75516 19 ft 2 kts 243°
2026-04-28 15:14 -16.87121 145.75519 19 ft 0 kts 246°
2026-04-28 15:15 -16.87122 145.75517 19 ft 0 kts 246°
2026-04-28 15:16 -16.87126 145.75509 17 ft 3 kts 246°
2026-04-28 15:16 -16.87138 145.75480 18 ft 5 kts 246°
2026-04-28 15:16 -16.87158 145.75431 16 ft 9 kts 246°
2026-04-28 15:16 -16.87178 145.75364 17 ft 10 kts 247°
2026-04-28 15:17 -16.87209 145.75290 18 ft 12 kts 246°
2026-04-28 15:17 -16.87243 145.75207 16 ft 13 kts 246°
2026-04-28 15:17 -16.87281 145.75117 18 ft 14 kts 246°
2026-04-28 15:17 -16.87318 145.75027 16 ft 13 kts 249°
2026-04-28 15:18 -16.87308 145.74930 16 ft 14 kts 292°
2026-04-28 15:18 -16.87245 145.74852 16 ft 15 kts 334°
2026-04-28 15:18 -16.87149 145.74809 16 ft 15 kts 336°
2026-04-28 15:18 -16.87066 145.74767 16 ft 12 kts 319°
2026-04-28 15:19 -16.87060 145.74681 15 ft 14 kts 246°
2026-04-28 15:19 -16.87069 145.74585 16 ft 15 kts 305°
2026-04-28 15:19 -16.86968 145.74528 15 ft 17 kts 336°
2026-04-28 15:19 -16.86857 145.74478 15 ft 18 kts 336°
2026-04-28 15:20 -16.86745 145.74427 17 ft 18 kts 336°
2026-04-28 15:20 -16.86648 145.74406 17 ft 12 kts 22°
2026-04-28 15:20 -16.86582 145.74389 20 ft 10 kts 286°
2026-04-28 15:20 -16.86626 145.74373 17 ft 7 kts 156°
2026-04-28 15:21 -16.86638 145.74378 17 ft 7 kts 155°
2026-04-28 15:21 -16.86917 145.74505 15 ft 77 kts 156°
2026-04-28 15:21 -16.87584 145.74808 19 ft 129 kts 156°
2026-04-28 15:21 -16.88527 145.75238 67 ft 164 kts 157°
2026-04-28 15:22 -16.89482 145.75738 886 ft 144 kts 133°
2026-04-28 15:22 -16.89731 145.76711 1407 ft 157 kts 77°
2026-04-28 15:22 -16.88902 145.77618 1570 ft 195 kts 21°
2026-04-28 15:22 -16.87543 145.78004 1909 ft 209 kts 28°
2026-04-28 15:23 -16.86449 145.78941 2295 ft 203 kts 57°
2026-04-28 15:23 -16.85549 145.80053 2801 ft 202 kts 58°
2026-04-28 15:23 -16.84667 145.81185 3317 ft 198 kts 66°
2026-04-28 15:23 -16.84291 145.82500 3771 ft 187 kts 90°
2026-04-28 15:24 -16.84252 145.83883 4030 ft 199 kts 103°
2026-04-28 15:24 -16.84944 145.85154 4173 ft 215 kts 140°
2026-04-28 15:24 -16.86304 145.85997 4395 ft 238 kts 149°
2026-04-28 15:24 -16.87785 145.86859 4948 ft 246 kts 148°
2026-04-28 15:25 -16.89260 145.87752 5595 ft 250 kts 147°
2026-04-28 15:25 -16.90774 145.88688 6254 ft 255 kts 147°
2026-04-28 15:25 -16.92312 145.89645 6848 ft 260 kts 147°
2026-04-28 15:25 -16.93880 145.90626 7492 ft 263 kts 147°
2026-04-28 15:26 -16.95459 145.91616 8133 ft 267 kts 147°
2026-04-28 15:26 -16.97065 145.92621 8749 ft 271 kts 147°
2026-04-28 15:26 -16.98679 145.93629 9359 ft 275 kts 147°
2026-04-28 15:26 -17.00328 145.94662 9955 ft 278 kts 147°
2026-04-28 15:27 -17.02027 145.95726 10245 ft 294 kts 147°
2026-04-28 15:27 -17.03843 145.96866 10369 ft 313 kts 147°
2026-04-28 15:27 -17.05764 145.98072 10502 ft 331 kts 147°
2026-04-28 15:27 -17.07773 145.99330 10892 ft 339 kts 147°
2026-04-28 15:28 -17.09813 146.00609 11364 ft 344 kts 147°
2026-04-28 15:28 -17.11883 146.01907 11847 ft 349 kts 147°
2026-04-28 15:28 -17.13956 146.03208 12294 ft 354 kts 147°
2026-04-28 15:28 -17.16086 146.04544 12742 ft 360 kts 148°
2026-04-28 15:29 -17.18251 146.05904 13198 ft 365 kts 148°
2026-04-28 15:29 -17.20442 146.07283 13637 ft 370 kts 148°
2026-04-28 15:29 -17.22666 146.08682 14054 ft 375 kts 148°
2026-04-28 15:29 -17.24912 146.10092 14474 ft 378 kts 149°
2026-04-28 15:30 -17.27184 146.11519 14913 ft 381 kts 149°
2026-04-28 15:30 -17.29468 146.12953 15353 ft 383 kts 150°
2026-04-28 15:30 -17.31763 146.14396 15790 ft 386 kts 150°
2026-04-28 15:30 -17.34043 146.15828 16207 ft 388 kts 151°
2026-04-28 15:31 -17.36368 146.17291 16640 ft 391 kts 151°
2026-04-28 15:31 -17.38702 146.18760 17080 ft 393 kts 152°
2026-04-28 15:31 -17.41056 146.20241 17510 ft 396 kts 152°
2026-04-28 15:31 -17.43423 146.21731 17934 ft 398 kts 152°
2026-04-28 15:32 -17.45807 146.23233 18354 ft 401 kts 152°
2026-04-28 15:32 -17.47389 146.24230 18593 ft 402 kts 152°
2026-04-28 15:32 -17.50609 146.26261 19120 ft 405 kts 152°
2026-04-28 15:32 -17.53027 146.27786 19508 ft 406 kts 153°
2026-04-28 15:33 -17.55452 146.29317 19899 ft 408 kts 153°
2026-04-28 15:33 -17.57901 146.30865 20299 ft 410 kts 153°
2026-04-28 15:33 -17.60314 146.32389 20692 ft 412 kts 153°
2026-04-28 15:33 -17.62780 146.33944 21071 ft 413 kts 153°
2026-04-28 15:34 -17.65248 146.35500 21450 ft 415 kts 153°
2026-04-28 15:34 -17.67728 146.37066 21808 ft 417 kts 154°
2026-04-28 15:34 -17.70219 146.38639 22159 ft 419 kts 154°
2026-04-28 15:34 -17.72718 146.40217 22498 ft 420 kts 154°
2026-04-28 15:35 -17.75232 146.41806 22835 ft 422 kts 154°
2026-04-28 15:35 -17.80291 146.45012 23483 ft 426 kts 154°
2026-04-28 15:35 -17.82798 146.46605 23759 ft 427 kts 154°
2026-04-28 15:36 -17.85351 146.48226 24014 ft 429 kts 154°
2026-04-28 15:36 -17.87921 146.49855 24268 ft 431 kts 154°
2026-04-28 15:36 -17.90495 146.51485 24525 ft 432 kts 155°
2026-04-28 15:36 -17.93080 146.53123 24778 ft 434 kts 155°
2026-04-28 15:37 -17.95640 146.54745 25026 ft 435 kts 155°
2026-04-28 15:37 -17.98238 146.56392 25277 ft 437 kts 155°
2026-04-28 15:37 -18.00851 146.58048 25529 ft 438 kts 155°
2026-04-28 15:37 -18.02581 146.59144 25693 ft 439 kts 155°
2026-04-28 15:38 -18.06093 146.61371 26021 ft 441 kts 155°
2026-04-28 15:38 -18.08725 146.63043 26262 ft 443 kts 155°
2026-04-28 15:38 -18.11368 146.64724 26506 ft 444 kts 155°
2026-04-28 15:38 -18.13983 146.66392 26739 ft 446 kts 155°
2026-04-28 15:39 -18.16640 146.68086 26982 ft 447 kts 155°
2026-04-28 15:39 -18.19308 146.69782 27227 ft 449 kts 155°
2026-04-28 15:39 -18.21980 146.71480 27555 ft 448 kts 155°
2026-04-28 15:39 -18.24643 146.73177 27923 ft 447 kts 155°
2026-04-28 15:40 -18.27297 146.74873 28287 ft 446 kts 155°
2026-04-28 15:40 -18.29945 146.76567 28655 ft 445 kts 155°
2026-04-28 15:40 -18.32585 146.78253 29022 ft 444 kts 155°
2026-04-28 15:40 -18.35226 146.79936 29402 ft 443 kts 156°
2026-04-28 15:41 -18.37871 146.81581 29785 ft 440 kts 157°
2026-04-28 15:41 -18.40531 146.83161 30160 ft 438 kts 158°
2026-04-28 15:41 -18.43167 146.84679 30481 ft 437 kts 159°
2026-04-28 15:41 -18.45835 146.86204 30801 ft 435 kts 159°
2026-04-28 15:42 -18.48493 146.87730 31125 ft 434 kts 158°
2026-04-28 15:42 -18.51143 146.89264 31453 ft 433 kts 158°
2026-04-28 15:42 -18.53780 146.90805 31785 ft 432 kts 158°
2026-04-28 15:42 -18.56402 146.92348 32109 ft 431 kts 158°
2026-04-28 15:43 -18.59019 146.93891 32428 ft 430 kts 158°
2026-04-28 15:43 -18.61629 146.95430 32753 ft 428 kts 158°
2026-04-28 15:43 -18.64196 146.96942 33008 ft 428 kts 158°
2026-04-28 15:43 -18.66807 146.98478 33063 ft 432 kts 158°
2026-04-28 15:44 -18.72133 147.01601 33066 ft 441 kts 158°
2026-04-28 15:44 -18.77505 147.04765 33066 ft 442 kts 158°
2026-04-28 15:45 -18.82877 147.07937 33071 ft 442 kts 158°
2026-04-28 15:45 -18.88244 147.11106 33069 ft 441 kts 158°
2026-04-28 15:46 -18.93583 147.14258 33077 ft 441 kts 158°
2026-04-28 15:46 -18.98956 147.17429 33080 ft 441 kts 158°
2026-04-28 15:47 -19.04315 147.20586 33085 ft 441 kts 158°
2026-04-28 15:47 -19.09666 147.23756 33090 ft 441 kts 158°
2026-04-28 15:48 -19.15016 147.26933 33091 ft 441 kts 158°
2026-04-28 15:48 -19.20336 147.30081 33094 ft 441 kts 158°
2026-04-28 15:49 -19.25694 147.33254 33094 ft 441 kts 158°
2026-04-28 15:49 -19.31044 147.36433 33097 ft 441 kts 158°
2026-04-28 15:50 -19.36392 147.39613 33100 ft 440 kts 158°
2026-04-28 15:50 -19.41743 147.42790 33102 ft 440 kts 158°
2026-04-28 15:51 -19.47056 147.45947 33099 ft 440 kts 158°
2026-04-28 15:51 -19.52398 147.49127 33104 ft 440 kts 158°
2026-04-28 15:52 -19.57742 147.52305 33104 ft 440 kts 158°
2026-04-28 15:52 -19.63077 147.55487 33106 ft 440 kts 158°
2026-04-28 15:53 -19.68384 147.58655 33108 ft 440 kts 158°
2026-04-28 15:53 -19.73732 147.61843 33112 ft 440 kts 158°
2026-04-28 15:54 -19.78178 147.64492 33110 ft 440 kts 158°
2026-04-28 15:54 -19.84388 147.68201 33114 ft 440 kts 158°
2026-04-28 15:55 -19.88861 147.70874 33116 ft 440 kts 157°
2026-04-28 15:55 -19.94161 147.74050 33119 ft 440 kts 157°
2026-04-28 15:56 -19.99500 147.77249 33121 ft 440 kts 157°
2026-04-28 15:56 -20.04846 147.80455 33118 ft 440 kts 157°
2026-04-28 15:57 -20.10149 147.83634 33120 ft 440 kts 157°
2026-04-28 15:57 -20.15486 147.86839 33114 ft 440 kts 157°
2026-04-28 15:58 -20.20825 147.90048 33119 ft 441 kts 156°
2026-04-28 15:58 -20.26177 147.93268 33130 ft 441 kts 156°
2026-04-28 15:59 -20.31523 147.96484 33109 ft 441 kts 156°
2026-04-28 15:59 -20.36874 147.99702 33132 ft 441 kts 156°
2026-04-28 16:00 -20.42194 148.02905 33134 ft 442 kts 156°
2026-04-28 16:00 -20.47546 148.06131 33740 ft 443 kts 149°
2026-04-28 16:01 -20.52960 148.09402 33630 ft 448 kts 150°
2026-04-28 16:01 -20.55672 148.11041 33136 ft 447 kts 150°
2026-04-28 16:01 -20.58387 148.12679 32967 ft 449 kts 150°
2026-04-28 16:02 -20.63847 148.15976 33008 ft 451 kts 150°
2026-04-28 16:02 -20.69275 148.19261 33009 ft 452 kts 150°
2026-04-28 16:03 -20.74741 148.22576 33008 ft 452 kts 150°
2026-04-28 16:03 -20.80207 148.25887 33009 ft 452 kts 150°
2026-04-28 16:04 -20.85675 148.29196 33013 ft 452 kts 150°
2026-04-28 16:04 -20.91144 148.32521 33018 ft 452 kts 150°
2026-04-28 16:05 -20.96614 148.35853 33021 ft 452 kts 150°
2026-04-28 16:05 -21.02095 148.39184 33022 ft 453 kts 150°
2026-04-28 16:06 -21.07573 148.42511 33023 ft 453 kts 150°
2026-04-28 16:06 -21.13007 148.45822 33027 ft 453 kts 150°
2026-04-28 16:07 -21.18480 148.49160 33024 ft 453 kts 150°
2026-04-28 16:08 -21.26693 148.54165 33028 ft 453 kts 150°
2026-04-28 16:08 -21.32168 148.57505 33024 ft 452 kts 150°
2026-04-28 16:09 -21.40379 148.62526 33025 ft 452 kts 150°
2026-04-28 16:10 -21.48572 148.67559 33024 ft 452 kts 150°
2026-04-28 16:10 -21.56746 148.72563 33026 ft 452 kts 150°
2026-04-28 16:11 -21.67687 148.79284 33024 ft 452 kts 150°
2026-04-28 16:12 -21.75838 148.84307 33025 ft 452 kts 150°
2026-04-28 16:13 -21.84035 148.89348 33020 ft 452 kts 150°
2026-04-28 16:14 -21.94955 148.96087 33023 ft 452 kts 150°
2026-04-28 16:15 -22.05841 149.02806 33021 ft 452 kts 150°
2026-04-28 16:15 -22.11300 149.06187 33021 ft 452 kts 150°
2026-04-28 16:16 -22.19444 149.11239 33018 ft 451 kts 150°
2026-04-28 16:17 -22.27614 149.16307 33014 ft 451 kts 150°
2026-04-28 16:17 -22.33063 149.19690 33013 ft 451 kts 150°
2026-04-28 16:18 -22.38510 149.23075 33013 ft 451 kts 150°
2026-04-28 16:18 -22.43926 149.26445 33013 ft 451 kts 150°
2026-04-28 16:19 -22.49368 149.29833 33013 ft 451 kts 150°
2026-04-28 16:19 -22.54815 149.33225 33014 ft 451 kts 150°
2026-04-28 16:20 -22.60266 149.36629 33018 ft 452 kts 150°
2026-04-28 16:20 -22.65712 149.40028 33020 ft 452 kts 150°
2026-04-28 16:21 -22.71121 149.43410 33019 ft 452 kts 150°
2026-04-28 16:21 -22.76565 149.46813 33019 ft 451 kts 150°
2026-04-28 16:22 -22.82007 149.50220 33016 ft 451 kts 150°
2026-04-28 16:22 -22.87455 149.53638 33018 ft 451 kts 150°
2026-04-28 16:23 -22.92864 149.57036 33019 ft 452 kts 150°
2026-04-28 16:23 -22.98306 149.60454 33021 ft 452 kts 150°
2026-04-28 16:24 -23.03747 149.63870 33020 ft 451 kts 150°
2026-04-28 16:24 -23.09188 149.67297 33018 ft 451 kts 150°
2026-04-28 16:25 -23.14586 149.70714 33018 ft 451 kts 150°
2026-04-28 16:25 -23.20015 149.74153 33016 ft 451 kts 150°
2026-04-28 16:26 -23.25448 149.77585 33016 ft 451 kts 150°
2026-04-28 16:26 -23.30875 149.81018 33015 ft 451 kts 150°
2026-04-28 16:27 -23.36262 149.84445 33014 ft 451 kts 150°
2026-04-28 16:28 -23.44415 149.89623 33017 ft 451 kts 150°
2026-04-28 16:28 -23.49808 149.93053 33020 ft 452 kts 150°
2026-04-28 16:29 -23.57961 149.98236 33022 ft 452 kts 150°
2026-04-28 16:30 -23.66080 150.03407 33022 ft 452 kts 150°
2026-04-28 16:30 -23.71510 150.06875 33022 ft 452 kts 150°
2026-04-28 16:31 -23.76942 150.10353 33022 ft 452 kts 150°
2026-04-28 16:31 -23.82368 150.13823 33024 ft 452 kts 150°
2026-04-28 16:32 -23.87794 150.17293 33023 ft 451 kts 150°
2026-04-28 16:32 -23.95888 150.22477 33023 ft 451 kts 150°
2026-04-28 16:33 -23.99514 150.24803 33022 ft 451 kts 150°
2026-04-28 16:33 -24.06728 150.29440 33022 ft 451 kts 150°
2026-04-28 16:34 -24.12148 150.32922 33023 ft 452 kts 150°
2026-04-28 16:34 -24.17563 150.36411 33023 ft 451 kts 150°
2026-04-28 16:35 -24.22945 150.39881 33021 ft 451 kts 150°
2026-04-28 16:35 -24.28353 150.43364 33017 ft 451 kts 150°
2026-04-28 16:36 -24.33776 150.46858 33017 ft 451 kts 150°
2026-04-28 16:36 -24.39187 150.50359 33016 ft 451 kts 150°
2026-04-28 16:37 -24.44563 150.53839 33014 ft 451 kts 149°
2026-04-28 16:38 -24.52629 150.59185 33016 ft 451 kts 147°
2026-04-28 16:38 -24.57859 150.63019 33016 ft 451 kts 146°
2026-04-28 16:39 -24.63024 150.66886 33018 ft 451 kts 146°
2026-04-28 16:39 -24.68239 150.70730 33017 ft 451 kts 147°
2026-04-28 16:40 -24.73470 150.74547 33016 ft 451 kts 147°
2026-04-28 16:40 -24.78705 150.78365 33016 ft 451 kts 147°
2026-04-28 16:41 -24.83902 150.82168 33017 ft 451 kts 147°
2026-04-28 16:41 -24.89135 150.86005 33017 ft 451 kts 147°
2026-04-28 16:42 -24.94367 150.89851 33018 ft 451 kts 146°
2026-04-28 16:42 -24.99557 150.93671 33018 ft 451 kts 147°
2026-04-28 16:43 -25.04785 150.97513 33018 ft 451 kts 147°
2026-04-28 16:43 -25.10017 151.01357 33018 ft 451 kts 147°
2026-04-28 16:44 -25.15237 151.05200 33018 ft 451 kts 146°
2026-04-28 16:44 -25.20452 151.09054 33018 ft 451 kts 146°
2026-04-28 16:45 -25.25639 151.12883 33018 ft 451 kts 147°
2026-04-28 16:45 -25.30855 151.16743 33018 ft 451 kts 146°
2026-04-28 16:46 -25.36078 151.20615 33017 ft 451 kts 146°
2026-04-28 16:46 -25.41295 151.24483 33018 ft 451 kts 146°
2026-04-28 16:47 -25.46475 151.28332 33018 ft 451 kts 146°
2026-04-28 16:47 -25.51688 151.32208 33018 ft 451 kts 146°
2026-04-28 16:48 -25.56019 151.35420 33017 ft 451 kts 146°
2026-04-28 16:48 -25.61234 151.39295 33017 ft 451 kts 146°
2026-04-28 16:49 -25.66444 151.43180 33017 ft 451 kts 146°
2026-04-28 16:49 -25.71645 151.47064 33017 ft 451 kts 146°
2026-04-28 16:50 -25.76623 151.51283 33016 ft 451 kts 139°
2026-04-28 16:50 -25.81274 151.55897 33016 ft 451 kts 138°
2026-04-28 16:51 -25.85944 151.60561 33015 ft 451 kts 138°
2026-04-28 16:51 -25.90621 151.65211 33017 ft 451 kts 139°
2026-04-28 16:52 -25.95304 151.69856 33018 ft 451 kts 138°
2026-04-28 16:52 -25.99986 151.74514 33019 ft 451 kts 138°
2026-04-28 16:53 -26.04635 151.79164 33020 ft 451 kts 138°
2026-04-28 16:53 -26.09318 151.83850 33019 ft 451 kts 138°
2026-04-28 16:54 -26.13996 151.88522 33018 ft 451 kts 138°
2026-04-28 16:54 -26.18649 151.93162 33018 ft 451 kts 138°
2026-04-28 16:55 -26.23330 151.97844 33019 ft 451 kts 138°
2026-04-28 16:55 -26.27967 152.02498 33020 ft 451 kts 138°
2026-04-28 16:56 -26.32635 152.07192 33020 ft 451 kts 138°
2026-04-28 16:56 -26.37300 152.11885 33021 ft 451 kts 138°
2026-04-28 16:57 -26.41958 152.16581 33021 ft 451 kts 138°
2026-04-28 16:57 -26.46619 152.21283 33021 ft 451 kts 138°
2026-04-28 16:58 -26.51279 152.25988 33022 ft 451 kts 138°
2026-04-28 16:58 -26.55907 152.30656 33020 ft 451 kts 138°
2026-04-28 16:59 -26.60564 152.35361 33020 ft 451 kts 138°
2026-04-28 16:59 -26.65226 152.40084 33021 ft 451 kts 138°
2026-04-28 17:00 -26.69850 152.44839 33022 ft 452 kts 137°
2026-04-28 17:00 -26.74429 152.49596 33022 ft 451 kts 137°
2026-04-28 17:01 -26.79037 152.54375 33020 ft 451 kts 137°
2026-04-28 17:01 -26.83648 152.59147 33018 ft 451 kts 137°
2026-04-28 17:02 -26.88231 152.63888 33017 ft 451 kts 137°
2026-04-28 17:02 -26.92852 152.68652 33016 ft 451 kts 137°
2026-04-28 17:03 -26.99790 152.75784 33015 ft 451 kts 137°
2026-04-28 17:03 -27.04386 152.80521 33015 ft 451 kts 137°
2026-04-28 17:04 -27.11324 152.87676 33016 ft 451 kts 137°
2026-04-28 17:05 -27.18231 152.94827 33017 ft 451 kts 137°
2026-04-28 17:06 -27.25120 153.01978 33016 ft 451 kts 137°
2026-04-28 17:06 -27.32031 153.09158 33015 ft 451 kts 137°
2026-04-28 17:07 -27.36622 153.13977 33013 ft 451 kts 134°
2026-04-28 17:07 -27.40739 153.19244 33014 ft 451 kts 131°
2026-04-28 17:08 -27.44851 153.24578 33015 ft 451 kts 131°
2026-04-28 17:08 -27.48965 153.29924 33016 ft 451 kts 131°
2026-04-28 17:09 -27.53089 153.35274 33017 ft 451 kts 131°
2026-04-28 17:09 -27.57155 153.40606 33018 ft 451 kts 131°
2026-04-28 17:10 -27.61236 153.46010 33019 ft 451 kts 130°
2026-04-28 17:10 -27.65283 153.51382 33020 ft 451 kts 130°
2026-04-28 17:11 -27.69361 153.56783 33020 ft 451 kts 131°
2026-04-28 17:11 -27.73448 153.62189 33021 ft 451 kts 130°
2026-04-28 17:12 -27.77492 153.67561 33021 ft 451 kts 130°
2026-04-28 17:12 -27.81561 153.72973 33022 ft 451 kts 130°
2026-04-28 17:13 -27.85625 153.78389 33097 ft 453 kts 130°
2026-04-28 17:13 -27.87672 153.81105 33375 ft 453 kts 131°
2026-04-28 17:13 -27.89771 153.83756 33666 ft 452 kts 133°
2026-04-28 17:14 -27.91893 153.86325 33933 ft 452 kts 134°
2026-04-28 17:14 -27.94070 153.88897 34005 ft 452 kts 134°
2026-04-28 17:14 -27.98433 153.94040 34009 ft 452 kts 134°
2026-04-28 17:15 -28.02734 153.99228 34008 ft 452 kts 133°
2026-04-28 17:15 -28.07008 154.04445 34009 ft 452 kts 133°
2026-04-28 17:16 -28.11260 154.09640 34009 ft 452 kts 133°
2026-04-28 17:16 -28.15547 154.14867 34012 ft 452 kts 133°
2026-04-28 17:17 -28.19809 154.20058 34015 ft 452 kts 133°
2026-04-28 17:17 -28.24102 154.25293 34022 ft 452 kts 133°
2026-04-28 17:18 -28.28390 154.30538 34020 ft 452 kts 133°
2026-04-28 17:18 -28.32642 154.35753 34019 ft 452 kts 133°
2026-04-28 17:19 -28.36924 154.41009 34018 ft 452 kts 133°
2026-04-28 17:19 -28.41177 154.46227 34019 ft 452 kts 133°
2026-04-28 17:20 -28.44730 154.50594 34025 ft 452 kts 133°
2026-04-28 17:20 -28.49717 154.56745 34023 ft 452 kts 133°
2026-04-28 17:21 -28.53984 154.62012 34027 ft 452 kts 133°
2026-04-28 17:22 -28.60367 154.69870 34021 ft 452 kts 133°
2026-04-28 17:22 -28.64634 154.75146 34019 ft 452 kts 133°
2026-04-28 17:23 -28.70991 154.83031 34026 ft 452 kts 133°
2026-04-28 17:23 -28.75246 154.88317 34019 ft 452 kts 133°
2026-04-28 17:24 -28.79505 154.93595 34023 ft 452 kts 133°
2026-04-28 17:24 -28.83757 154.98881 34019 ft 452 kts 133°
2026-04-28 17:25 -28.90102 155.06785 34019 ft 452 kts 133°
2026-04-28 17:26 -28.94352 155.12087 34022 ft 452 kts 133°
2026-04-28 17:26 -28.98596 155.17395 34021 ft 451 kts 133°
2026-04-28 17:27 -29.02804 155.22668 34015 ft 452 kts 133°
2026-04-28 17:27 -29.07038 155.27983 34021 ft 452 kts 133°
2026-04-28 17:28 -29.11281 155.33299 34019 ft 452 kts 133°
2026-04-28 17:28 -29.17642 155.41273 34021 ft 452 kts 133°
2026-04-28 17:29 -29.21848 155.46569 34020 ft 452 kts 133°
2026-04-28 17:30 -29.28206 155.54595 34024 ft 452 kts 132°
2026-04-28 17:30 -29.34521 155.62574 34026 ft 452 kts 133°
2026-04-28 17:31 -29.40856 155.70591 34026 ft 452 kts 132°
2026-04-28 17:32 -29.47194 155.78619 34027 ft 452 kts 132°
2026-04-28 17:32 -29.51377 155.83951 34023 ft 452 kts 132°
2026-04-28 17:33 -29.55594 155.89318 34027 ft 452 kts 132°
2026-04-28 17:33 -29.58388 155.92875 34027 ft 452 kts 132°
2026-04-28 17:34 -29.63999 156.00029 34021 ft 452 kts 132°
2026-04-28 17:34 -29.68211 156.05405 34021 ft 452 kts 132°
2026-04-28 17:35 -29.72424 156.10785 34029 ft 452 kts 132°
2026-04-28 17:35 -29.76635 156.16180 34029 ft 452 kts 132°
2026-04-28 17:36 -29.80953 156.21461 34267 ft 453 kts 140°
2026-04-28 17:36 -29.83332 156.23768 34545 ft 453 kts 140°
2026-04-28 17:36 -29.85738 156.26100 34813 ft 452 kts 140°
2026-04-28 17:37 -29.88146 156.28442 34984 ft 452 kts 140°
2026-04-28 17:37 -29.90549 156.30779 35007 ft 452 kts 140°
2026-04-28 17:37 -29.95352 156.35460 35008 ft 452 kts 140°
2026-04-28 17:38 -30.00156 156.40142 35009 ft 452 kts 140°
2026-04-28 17:38 -30.04961 156.44814 35005 ft 451 kts 140°
2026-04-28 17:39 -30.09731 156.49464 35011 ft 452 kts 140°
2026-04-28 17:40 -30.16933 156.56523 35014 ft 452 kts 140°
2026-04-28 17:40 -30.21733 156.61227 35017 ft 452 kts 140°
2026-04-28 17:41 -30.26536 156.65932 35025 ft 452 kts 140°
2026-04-28 17:41 -30.31307 156.70616 35021 ft 452 kts 140°
2026-04-28 17:42 -30.36112 156.75340 35023 ft 452 kts 140°
2026-04-28 17:42 -30.40093 156.79265 35025 ft 452 kts 140°
2026-04-28 17:43 -30.44886 156.83997 35026 ft 452 kts 140°
2026-04-28 17:43 -30.50465 156.89500 35027 ft 452 kts 140°
2026-04-28 17:44 -30.54449 156.93448 35027 ft 453 kts 140°
2026-04-28 17:44 -30.59246 156.98204 35028 ft 453 kts 140°
2026-04-28 17:45 -30.64040 157.02954 35029 ft 453 kts 140°
2026-04-28 17:45 -30.68829 157.07709 35029 ft 453 kts 140°
2026-04-28 17:46 -30.73585 157.12438 35029 ft 453 kts 140°
2026-04-28 17:46 -30.78384 157.17204 35030 ft 453 kts 140°
2026-04-28 17:47 -30.83170 157.21974 35030 ft 453 kts 140°
2026-04-28 17:47 -30.87924 157.26728 35030 ft 453 kts 140°
2026-04-28 17:48 -30.92712 157.31508 35031 ft 453 kts 140°
2026-04-28 17:48 -30.97502 157.36294 35032 ft 453 kts 140°
2026-04-28 17:49 -31.02281 157.41086 35031 ft 453 kts 140°
2026-04-28 17:49 -31.07026 157.45857 35031 ft 453 kts 139°
2026-04-28 17:50 -31.11796 157.50662 35031 ft 453 kts 140°
2026-04-28 17:50 -31.16579 157.55464 35031 ft 453 kts 140°
2026-04-28 17:51 -31.21354 157.60276 35031 ft 453 kts 139°
2026-04-28 17:51 -31.26091 157.65065 35030 ft 452 kts 139°
2026-04-28 17:52 -31.30862 157.69884 35030 ft 452 kts 139°
2026-04-28 17:52 -31.37976 157.77088 35029 ft 452 kts 139°
2026-04-28 17:53 -31.42736 157.81916 35029 ft 452 kts 139°
2026-04-28 17:53 -31.47499 157.86746 35029 ft 452 kts 139°
2026-04-28 17:54 -31.52223 157.91554 35029 ft 452 kts 139°
2026-04-28 17:54 -31.56969 157.96400 35027 ft 452 kts 139°
2026-04-28 17:55 -31.61725 158.01240 35027 ft 452 kts 139°
2026-04-28 17:55 -31.66453 158.06062 35027 ft 452 kts 139°
2026-04-28 17:56 -31.71192 158.10918 35026 ft 452 kts 139°
2026-04-28 17:56 -31.75925 158.15772 35025 ft 452 kts 139°
2026-04-28 17:57 -31.80665 158.20629 35025 ft 451 kts 139°
2026-04-28 17:57 -31.85368 158.25454 35025 ft 451 kts 139°
2026-04-28 17:58 -31.90103 158.30317 35024 ft 452 kts 139°
2026-04-28 17:58 -31.94831 158.35191 35025 ft 452 kts 139°
2026-04-28 17:59 -31.99560 158.40076 35026 ft 452 kts 139°
2026-04-28 17:59 -32.04288 158.44956 35027 ft 452 kts 139°
2026-04-28 18:00 -32.09022 158.49842 35027 ft 452 kts 139°
2026-04-28 18:00 -32.13719 158.54709 35027 ft 451 kts 139°
2026-04-28 18:01 -32.18440 158.59613 35025 ft 451 kts 139°
2026-04-28 18:01 -32.23149 158.64519 35023 ft 451 kts 139°
2026-04-28 18:02 -32.27868 158.69416 35024 ft 451 kts 139°
2026-04-28 18:02 -32.32553 158.74298 35020 ft 451 kts 139°
2026-04-28 18:03 -32.37271 158.79220 35022 ft 451 kts 139°
2026-04-28 18:03 -32.41981 158.84142 35023 ft 451 kts 139°
2026-04-28 18:04 -32.46660 158.89044 35023 ft 451 kts 139°
2026-04-28 18:04 -32.51372 158.93972 35024 ft 451 kts 139°
2026-04-28 18:05 -32.55286 158.98077 35024 ft 451 kts 139°
2026-04-28 18:05 -32.60790 159.03855 35024 ft 451 kts 139°
2026-04-28 18:06 -32.65458 159.08779 35025 ft 451 kts 139°
2026-04-28 18:06 -32.70155 159.13738 35025 ft 451 kts 139°
2026-04-28 18:07 -32.74851 159.18702 35025 ft 451 kts 139°
2026-04-28 18:07 -32.79554 159.23666 35025 ft 451 kts 139°
2026-04-28 18:08 -32.84224 159.28604 35026 ft 451 kts 139°
2026-04-28 18:08 -32.88920 159.33576 35026 ft 451 kts 139°
2026-04-28 18:09 -32.93609 159.38563 35027 ft 452 kts 138°
2026-04-28 18:09 -32.98271 159.43521 35027 ft 452 kts 139°
2026-04-28 18:10 -33.02960 159.48514 35027 ft 452 kts 139°
2026-04-28 18:10 -33.07648 159.53510 35027 ft 452 kts 139°
2026-04-28 18:11 -33.12337 159.58513 35027 ft 451 kts 138°
2026-04-28 18:11 -33.17009 159.63522 35027 ft 451 kts 138°
2026-04-28 18:12 -33.21659 159.68505 35027 ft 451 kts 138°
2026-04-28 18:12 -33.26342 159.73515 35026 ft 451 kts 138°
2026-04-28 18:13 -33.31020 159.78544 35026 ft 451 kts 138°
2026-04-28 18:13 -33.35652 159.83545 35026 ft 451 kts 138°
2026-04-28 18:14 -33.40315 159.88578 35026 ft 451 kts 138°
2026-04-28 18:14 -33.44993 159.93613 35025 ft 451 kts 138°
2026-04-28 18:15 -33.49655 159.98656 35025 ft 451 kts 138°
2026-04-28 18:15 -33.54284 160.03676 35024 ft 451 kts 138°
2026-04-28 18:16 -33.58943 160.08727 35022 ft 451 kts 138°
2026-04-28 18:16 -33.63602 160.13779 35021 ft 451 kts 138°
2026-04-28 18:17 -33.68244 160.18842 35021 ft 451 kts 138°
2026-04-28 18:17 -33.72864 160.23880 35022 ft 451 kts 138°
2026-04-28 18:18 -33.77523 160.28955 35023 ft 451 kts 138°
2026-04-28 18:18 -33.81392 160.33180 35023 ft 451 kts 138°
2026-04-28 18:19 -33.86783 160.39089 35024 ft 451 kts 138°
2026-04-28 18:19 -33.91435 160.44189 35027 ft 451 kts 138°
2026-04-28 18:20 -33.96081 160.49294 35027 ft 452 kts 138°
2026-04-28 18:20 -34.00733 160.54405 35028 ft 451 kts 138°
2026-04-28 18:21 -34.05348 160.59475 35027 ft 451 kts 138°
2026-04-28 18:21 -34.09988 160.64591 35026 ft 451 kts 138°
2026-04-28 18:22 -34.14621 160.69708 35026 ft 451 kts 138°
2026-04-28 18:22 -34.19246 160.74833 35026 ft 451 kts 137°
2026-04-28 18:23 -34.23839 160.79933 35342 ft 451 kts 137°
2026-04-28 18:23 -34.28452 160.85057 35364 ft 450 kts 137°
2026-04-28 18:24 -34.32289 160.89324 35376 ft 450 kts 137°
2026-04-28 18:24 -34.37677 160.95324 35390 ft 450 kts 137°
2026-04-28 18:25 -34.42289 161.00457 35392 ft 450 kts 137°
2026-04-28 18:26 -34.49153 161.08127 35401 ft 449 kts 137°
2026-04-28 18:26 -34.53754 161.13265 35407 ft 448 kts 137°
2026-04-28 18:27 -34.58334 161.18401 35406 ft 448 kts 137°
2026-04-28 18:27 -34.62908 161.23545 35411 ft 447 kts 137°
2026-04-28 18:28 -34.67439 161.28652 35411 ft 447 kts 137°
2026-04-28 18:28 -34.71991 161.33787 35413 ft 446 kts 137°
2026-04-28 18:29 -34.76543 161.38913 35414 ft 445 kts 137°
2026-04-28 18:29 -34.81086 161.44040 35413 ft 445 kts 137°
2026-04-28 18:30 -34.85618 161.49165 35410 ft 444 kts 137°
2026-04-28 18:30 -34.90118 161.54269 35414 ft 444 kts 137°
2026-04-28 18:31 -34.94627 161.59389 35364 ft 440 kts 137°
2026-04-28 18:31 -34.99103 161.64478 35392 ft 439 kts 137°
2026-04-28 18:32 -35.03536 161.69525 35403 ft 438 kts 137°
2026-04-28 18:32 -35.07985 161.74607 35408 ft 438 kts 137°
2026-04-28 18:33 -35.12436 161.79691 35411 ft 437 kts 137°
2026-04-28 18:33 -35.16886 161.84779 35413 ft 437 kts 137°
2026-04-28 18:34 -35.21296 161.89832 35416 ft 437 kts 137°
2026-04-28 18:34 -35.25731 161.94928 35414 ft 437 kts 137°
2026-04-28 18:35 -35.30157 162.00022 35413 ft 436 kts 137°
2026-04-28 18:35 -35.33834 162.04258 35413 ft 436 kts 137°
2026-04-28 18:36 -35.38252 162.09358 35422 ft 436 kts 137°
2026-04-28 18:36 -35.42677 162.14463 35420 ft 436 kts 137°
2026-04-28 18:37 -35.47097 162.19568 35420 ft 436 kts 136°
2026-04-28 18:37 -35.51481 162.24647 35415 ft 436 kts 136°
2026-04-28 18:38 -35.55896 162.29766 35416 ft 436 kts 136°
2026-04-28 18:38 -35.60304 162.34891 35418 ft 436 kts 136°
2026-04-28 18:39 -35.64711 162.40030 35419 ft 436 kts 136°
2026-04-28 18:39 -35.69089 162.45145 35420 ft 436 kts 136°
2026-04-28 18:40 -35.73497 162.50289 35418 ft 436 kts 136°
2026-04-28 18:40 -35.77899 162.55446 35417 ft 437 kts 136°
2026-04-28 18:41 -35.82306 162.60606 35419 ft 437 kts 136°
2026-04-28 18:41 -35.86712 162.65762 35420 ft 437 kts 136°
2026-04-28 18:42 -35.91089 162.70909 35420 ft 437 kts 136°
2026-04-28 18:42 -35.95505 162.76106 35417 ft 437 kts 136°
2026-04-28 18:43 -35.99906 162.81294 35416 ft 438 kts 136°
2026-04-28 18:43 -36.04311 162.86500 35414 ft 438 kts 136°
2026-04-28 18:44 -36.08688 162.91682 35411 ft 438 kts 136°
2026-04-28 18:44 -36.15294 162.99522 35413 ft 439 kts 136°
2026-04-28 18:45 -36.19752 163.04692 35413 ft 439 kts 137°
2026-04-28 18:45 -36.24244 163.09772 35415 ft 439 kts 137°
2026-04-28 18:46 -36.28754 163.14898 35418 ft 440 kts 137°
2026-04-28 18:46 -36.33259 163.20047 35422 ft 440 kts 137°
2026-04-28 18:47 -36.37727 163.25173 35423 ft 440 kts 137°
2026-04-28 18:47 -36.42218 163.30348 35422 ft 440 kts 137°
2026-04-28 18:48 -36.46714 163.35524 35424 ft 441 kts 137°
2026-04-28 18:48 -36.51215 163.40706 35420 ft 441 kts 137°
2026-04-28 18:49 -36.54950 163.45028 35419 ft 441 kts 137°
2026-04-28 18:49 -36.60217 163.51128 35420 ft 442 kts 137°
2026-04-28 18:50 -36.64700 163.56310 35422 ft 442 kts 137°
2026-04-28 18:50 -36.69211 163.61538 35419 ft 443 kts 137°
2026-04-28 18:51 -36.73725 163.66783 35417 ft 443 kts 137°
2026-04-28 18:51 -36.78205 163.72008 35418 ft 444 kts 137°
2026-04-28 18:52 -36.82718 163.77274 35419 ft 444 kts 137°
2026-04-28 18:52 -36.87237 163.82548 35418 ft 445 kts 137°
2026-04-28 18:53 -36.91752 163.87842 35421 ft 445 kts 137°
2026-04-28 18:53 -36.96269 163.93147 35422 ft 445 kts 137°
2026-04-28 18:54 -37.00768 163.98420 35421 ft 446 kts 137°
2026-04-28 18:54 -37.05296 164.03747 35426 ft 446 kts 137°
2026-04-28 18:55 -37.09062 164.08187 35427 ft 446 kts 137°
2026-04-28 18:55 -37.14352 164.14427 35427 ft 447 kts 137°
2026-04-28 18:56 -37.18850 164.19749 35426 ft 447 kts 137°
2026-04-28 18:56 -37.23377 164.25108 35430 ft 447 kts 137°
2026-04-28 18:57 -37.27909 164.30486 35430 ft 447 kts 137°
2026-04-28 18:57 -37.32398 164.35827 35428 ft 447 kts 137°
2026-04-28 18:58 -37.36917 164.41214 35427 ft 448 kts 137°
2026-04-28 18:58 -37.41442 164.46607 35429 ft 448 kts 137°
2026-04-28 18:59 -37.45957 164.52002 35430 ft 448 kts 137°
2026-04-28 18:59 -37.50476 164.57422 35432 ft 448 kts 137°
2026-04-28 19:00 -37.54961 164.62795 35432 ft 448 kts 137°
2026-04-28 19:00 -37.59481 164.68207 35436 ft 448 kts 137°
2026-04-28 19:01 -37.63992 164.73631 35439 ft 448 kts 137°
2026-04-28 19:01 -37.68496 164.79080 35439 ft 448 kts 137°
2026-04-28 19:02 -37.73001 164.84526 35443 ft 448 kts 137°
2026-04-28 19:02 -37.77505 164.89973 35446 ft 448 kts 137°
2026-04-28 19:03 -37.81984 164.95387 35448 ft 448 kts 137°
2026-04-28 19:03 -37.86483 165.00847 35453 ft 447 kts 136°
2026-04-28 19:04 -37.90969 165.06316 35452 ft 447 kts 136°
2026-04-28 19:04 -37.95419 165.11745 35455 ft 446 kts 136°
2026-04-28 19:05 -37.99894 165.17201 35453 ft 446 kts 136°
2026-04-28 19:05 -38.04360 165.22658 35449 ft 446 kts 136°
2026-04-28 19:06 -38.08076 165.27207 35452 ft 445 kts 136°
2026-04-28 19:06 -38.13265 165.33569 35451 ft 445 kts 136°
2026-04-28 19:07 -38.17717 165.39045 35453 ft 444 kts 136°
2026-04-28 19:07 -38.22156 165.44520 35453 ft 444 kts 136°
2026-04-28 19:08 -38.26563 165.49966 35454 ft 443 kts 136°
2026-04-28 19:08 -38.30992 165.55436 35454 ft 443 kts 136°
2026-04-28 19:09 -38.35416 165.60904 35455 ft 442 kts 136°
2026-04-28 19:09 -38.39797 165.66348 35452 ft 442 kts 135°
2026-04-28 19:10 -38.44203 165.71820 35453 ft 441 kts 136°
2026-04-28 19:10 -38.48605 165.77283 35453 ft 441 kts 135°
2026-04-28 19:11 -38.52991 165.82761 35453 ft 441 kts 135°
2026-04-28 19:11 -38.57364 165.88244 35454 ft 440 kts 135°
2026-04-28 19:12 -38.61718 165.93681 35453 ft 439 kts 135°
2026-04-28 19:12 -38.66092 165.99170 35450 ft 439 kts 135°
2026-04-28 19:13 -38.70450 166.04651 35450 ft 439 kts 135°
2026-04-28 19:13 -38.74786 166.10094 35450 ft 439 kts 135°
2026-04-28 19:14 -38.79140 166.15580 35450 ft 438 kts 135°
2026-04-28 19:14 -38.83478 166.21073 35446 ft 438 kts 135°
2026-04-28 19:15 -38.87816 166.26569 35439 ft 437 kts 135°
2026-04-28 19:15 -38.91422 166.31141 35437 ft 437 kts 135°
2026-04-28 19:16 -38.96456 166.37516 35440 ft 437 kts 134°
2026-04-28 19:16 -39.00774 166.43013 35440 ft 436 kts 134°
2026-04-28 19:17 -39.05059 166.48476 35439 ft 436 kts 134°
2026-04-28 19:17 -39.09376 166.53976 35439 ft 436 kts 134°
2026-04-28 19:18 -39.13685 166.59478 35437 ft 435 kts 134°
2026-04-28 19:18 -39.17954 166.64956 35437 ft 435 kts 134°
2026-04-28 19:19 -39.22244 166.70465 35436 ft 435 kts 134°
2026-04-28 19:19 -39.26542 166.75980 35432 ft 435 kts 134°
2026-04-28 19:20 -39.30823 166.81500 35431 ft 435 kts 134°
2026-04-28 19:20 -39.35075 166.87004 35431 ft 435 kts 134°
2026-04-28 19:21 -39.39348 166.92543 35428 ft 435 kts 134°
2026-04-28 19:21 -39.43628 166.98074 35429 ft 434 kts 134°
2026-04-28 19:22 -39.46462 167.01742 35427 ft 434 kts 134°
2026-04-28 19:22 -39.52136 167.09122 35426 ft 434 kts 134°
2026-04-28 19:23 -39.56403 167.14695 35426 ft 434 kts 134°
2026-04-28 19:23 -39.60665 167.20255 35424 ft 434 kts 134°
2026-04-28 19:24 -39.64900 167.25778 35422 ft 434 kts 134°
2026-04-28 19:24 -39.69167 167.31357 35418 ft 434 kts 134°
2026-04-28 19:25 -39.73421 167.36947 35420 ft 435 kts 134°
2026-04-28 19:25 -39.77651 167.42499 35423 ft 434 kts 134°
2026-04-28 19:26 -39.81897 167.48085 35416 ft 434 kts 134°
2026-04-28 19:26 -39.86140 167.53699 35414 ft 434 kts 134°
2026-04-28 19:27 -39.90379 167.59316 35407 ft 435 kts 134°
2026-04-28 19:27 -39.94599 167.64908 35411 ft 435 kts 134°
2026-04-28 19:28 -39.98849 167.70548 35410 ft 435 kts 134°
2026-04-28 19:28 -40.02377 167.75239 35412 ft 435 kts 134°
2026-04-28 19:29 -40.05907 167.79940 35406 ft 436 kts 134°
2026-04-28 19:29 -40.10865 167.86557 35406 ft 436 kts 134°
2026-04-28 19:30 -40.15082 167.92200 35408 ft 436 kts 133°
2026-04-28 19:30 -40.19319 167.97873 35407 ft 436 kts 134°
2026-04-28 19:31 -40.23564 168.03560 35407 ft 436 kts 133°
2026-04-28 19:31 -40.27803 168.09257 35401 ft 436 kts 133°
2026-04-28 19:32 -40.32008 168.14923 35406 ft 436 kts 133°
2026-04-28 19:32 -40.36240 168.20643 35404 ft 436 kts 133°
2026-04-28 19:33 -40.40465 168.26366 35406 ft 436 kts 133°
2026-04-28 19:33 -40.44691 168.32082 35402 ft 436 kts 133°
2026-04-28 19:34 -40.48898 168.37785 35402 ft 436 kts 133°
2026-04-28 19:34 -40.53120 168.43526 35402 ft 436 kts 133°
2026-04-28 19:35 -40.57316 168.49251 35399 ft 436 kts 133°
2026-04-28 19:35 -40.61532 168.55021 35403 ft 437 kts 133°
2026-04-28 19:36 -40.65749 168.60782 35395 ft 437 kts 133°
2026-04-28 19:36 -40.69968 168.66553 35397 ft 437 kts 133°
2026-04-28 19:37 -40.73468 168.71361 35396 ft 437 kts 133°
2026-04-28 19:37 -40.78355 168.78104 35390 ft 437 kts 133°
2026-04-28 19:38 -40.82563 168.83907 35387 ft 437 kts 133°
2026-04-28 19:38 -40.86753 168.89682 35391 ft 437 kts 133°
2026-04-28 19:39 -40.90958 168.95496 35391 ft 437 kts 133°
2026-04-28 19:39 -40.95158 169.01323 35390 ft 437 kts 133°
2026-04-28 19:40 -40.99357 169.07159 35388 ft 438 kts 133°
2026-04-28 19:40 -41.03531 169.12960 35387 ft 438 kts 133°
2026-04-28 19:41 -41.07736 169.18826 35386 ft 438 kts 133°
2026-04-28 19:41 -41.11928 169.24695 35381 ft 438 kts 133°
2026-04-28 19:42 -41.16122 169.30576 35382 ft 438 kts 133°
2026-04-28 19:42 -41.19612 169.35472 35384 ft 438 kts 133°
2026-04-28 19:43 -41.24488 169.42326 35377 ft 439 kts 133°
2026-04-28 19:43 -41.28660 169.48202 35380 ft 439 kts 133°
2026-04-28 19:44 -41.32853 169.54120 35378 ft 439 kts 133°
2026-04-28 19:44 -41.37038 169.60039 35376 ft 439 kts 132°
2026-04-28 19:45 -41.41229 169.65976 35379 ft 439 kts 132°
2026-04-28 19:45 -41.45380 169.71884 35377 ft 439 kts 132°
2026-04-28 19:46 -41.49564 169.77841 35373 ft 440 kts 132°
2026-04-28 19:46 -41.53751 169.83810 35372 ft 440 kts 132°
2026-04-28 19:47 -41.57910 169.89748 35376 ft 440 kts 132°
2026-04-28 19:47 -41.62095 169.95739 35371 ft 440 kts 132°
2026-04-28 19:48 -41.66275 170.01733 35371 ft 441 kts 132°
2026-04-28 19:48 -41.70456 170.07743 35372 ft 441 kts 133°
2026-04-28 19:49 -41.75070 170.13085 35372 ft 441 kts 140°
2026-04-28 19:49 -41.79857 170.18264 35364 ft 442 kts 140°
2026-04-28 19:50 -41.87034 170.26046 35363 ft 442 kts 140°
2026-04-28 19:51 -41.91783 170.31212 35363 ft 442 kts 140°
2026-04-28 19:51 -41.96567 170.36418 35365 ft 442 kts 140°
2026-04-28 19:52 -42.01360 170.41654 35364 ft 443 kts 140°
2026-04-28 19:52 -42.06112 170.46853 35363 ft 443 kts 140°
2026-04-28 19:53 -42.10897 170.52110 35361 ft 443 kts 140°
2026-04-28 19:53 -42.15672 170.57360 35364 ft 443 kts 140°
2026-04-28 19:53 -42.18068 170.59994 35181 ft 444 kts 140°
2026-04-28 19:54 -42.20463 170.62629 34939 ft 444 kts 140°
2026-04-28 19:54 -42.22853 170.65261 34703 ft 444 kts 140°
2026-04-28 19:54 -42.25241 170.67901 34465 ft 442 kts 140°
2026-04-28 19:54 -42.27586 170.70499 34213 ft 441 kts 139°
2026-04-28 19:55 -42.29953 170.73124 33940 ft 439 kts 139°
2026-04-28 19:55 -42.32312 170.75741 33676 ft 437 kts 139°
2026-04-28 19:55 -42.34663 170.78345 33409 ft 436 kts 140°
2026-04-28 19:55 -42.37004 170.80941 33147 ft 434 kts 140°
2026-04-28 19:56 -42.39330 170.83525 32880 ft 431 kts 140°
2026-04-28 19:56 -42.41637 170.86090 32563 ft 426 kts 140°
2026-04-28 19:56 -42.43918 170.88629 32069 ft 423 kts 140°
2026-04-28 19:56 -42.46185 170.91154 31583 ft 421 kts 140°
2026-04-28 19:57 -42.48420 170.93642 31102 ft 419 kts 140°
2026-04-28 19:57 -42.50669 170.96144 30627 ft 417 kts 140°
2026-04-28 19:57 -42.52907 170.98639 30107 ft 415 kts 140°
2026-04-28 19:57 -42.55129 171.01118 29638 ft 411 kts 140°
2026-04-28 19:58 -42.57328 171.03575 29174 ft 408 kts 140°
2026-04-28 19:58 -42.59510 171.06018 28731 ft 405 kts 140°
2026-04-28 19:58 -42.61647 171.08417 28287 ft 403 kts 141°
2026-04-28 19:58 -42.63800 171.10834 27860 ft 401 kts 141°
2026-04-28 19:59 -42.65943 171.13243 27430 ft 399 kts 141°
2026-04-28 19:59 -42.68076 171.15650 27009 ft 397 kts 141°
2026-04-28 19:59 -42.70199 171.18047 26596 ft 396 kts 141°
2026-04-28 19:59 -42.72320 171.20443 26171 ft 395 kts 141°
2026-04-28 20:00 -42.74435 171.22828 25758 ft 394 kts 141°
2026-04-28 20:00 -42.76547 171.25209 25336 ft 394 kts 141°
2026-04-28 20:00 -42.78657 171.27589 24908 ft 393 kts 141°
2026-04-28 20:00 -42.80739 171.29937 24483 ft 393 kts 141°
2026-04-28 20:01 -42.82847 171.32317 24033 ft 393 kts 141°
2026-04-28 20:01 -42.84951 171.34699 23541 ft 393 kts 141°
2026-04-28 20:01 -42.87058 171.37087 23075 ft 391 kts 141°
2026-04-28 20:01 -42.89144 171.39451 22612 ft 390 kts 142°
2026-04-28 20:02 -42.91226 171.41814 22145 ft 388 kts 142°
2026-04-28 20:02 -42.93300 171.44172 21683 ft 387 kts 142°
2026-04-28 20:02 -42.95335 171.46487 21208 ft 385 kts 141°
2026-04-28 20:02 -42.97388 171.48823 20740 ft 383 kts 142°
2026-04-28 20:03 -42.99305 171.51352 20274 ft 383 kts 131°
2026-04-28 20:03 -43.00837 171.54315 19810 ft 382 kts 123°
2026-04-28 20:03 -43.02263 171.57374 19369 ft 380 kts 123°
2026-04-28 20:03 -43.03686 171.60416 18919 ft 379 kts 123°
2026-04-28 20:04 -43.05109 171.63450 18442 ft 378 kts 124°
2026-04-28 20:04 -43.06530 171.66468 17975 ft 376 kts 124°
2026-04-28 20:04 -43.07940 171.69468 17526 ft 373 kts 123°
2026-04-28 20:04 -43.09338 171.72452 17074 ft 371 kts 123°
2026-04-28 20:05 -43.10706 171.75377 16621 ft 368 kts 123°
2026-04-28 20:05 -43.12079 171.78323 16183 ft 366 kts 123°
2026-04-28 20:05 -43.13599 171.81100 15745 ft 363 kts 134°
2026-04-28 20:05 -43.15436 171.83455 15314 ft 360 kts 140°
2026-04-28 20:06 -43.17306 171.85749 14876 ft 359 kts 139°
2026-04-28 20:06 -43.19156 171.88032 14442 ft 357 kts 139°
2026-04-28 20:06 -43.20997 171.90306 14015 ft 356 kts 139°
2026-04-28 20:06 -43.22812 171.92554 13546 ft 354 kts 139°
2026-04-28 20:07 -43.24642 171.94822 12981 ft 355 kts 139°
2026-04-28 20:07 -43.25870 171.96348 12724 ft 351 kts 139°
2026-04-28 20:07 -43.28242 171.99296 12082 ft 341 kts 139°
2026-04-28 20:07 -43.30115 172.01259 11647 ft 338 kts 150°
2026-04-28 20:08 -43.32114 172.02949 11231 ft 336 kts 150°
2026-04-28 20:08 -43.34098 172.04632 10811 ft 334 kts 150°
2026-04-28 20:08 -43.36069 172.06309 10395 ft 332 kts 149°
2026-04-28 20:08 -43.38019 172.07971 10107 ft 324 kts 150°
2026-04-28 20:09 -43.39869 172.09554 9941 ft 305 kts 149°
2026-04-28 20:09 -43.41643 172.11074 9746 ft 295 kts 149°
2026-04-28 20:09 -43.43353 172.12539 9131 ft 293 kts 149°
2026-04-28 20:09 -43.45079 172.14015 8524 ft 290 kts 149°
2026-04-28 20:10 -43.46299 172.15100 8502 ft 276 kts 149°
2026-04-28 20:10 -43.47973 172.16557 7806 ft 288 kts 149°
2026-04-28 20:10 -43.49662 172.17994 7289 ft 283 kts 149°
2026-04-28 20:11 -43.51331 172.19403 6791 ft 279 kts 149°
2026-04-28 20:11 -43.52972 172.20789 6324 ft 275 kts 150°
2026-04-28 20:11 -43.54574 172.22170 5873 ft 273 kts 146°
2026-04-28 20:11 -43.56045 172.23834 5402 ft 273 kts 141°
2026-04-28 20:12 -43.57503 172.25554 4919 ft 276 kts 141°
2026-04-28 20:12 -43.58960 172.27275 4295 ft 276 kts 141°
2026-04-28 20:12 -43.60422 172.28999 3831 ft 270 kts 141°
2026-04-28 20:12 -43.61345 172.30089 3750 ft 258 kts 141°
2026-04-28 20:13 -43.62968 172.32284 3578 ft 237 kts 121°
2026-04-28 20:13 -43.63419 172.34403 3461 ft 229 kts 89°
2026-04-28 20:13 -43.63038 172.36511 3179 ft 229 kts 57°
2026-04-28 20:13 -43.61968 172.38080 2958 ft 222 kts 38°
2026-04-28 20:14 -43.60791 172.39432 2835 ft 215 kts 37°
2026-04-28 20:14 -43.59651 172.40744 2664 ft 212 kts 38°
2026-04-28 20:14 -43.58540 172.42031 2431 ft 205 kts 38°
2026-04-28 20:14 -43.57475 172.43269 2161 ft 197 kts 37°
2026-04-28 20:15 -43.56467 172.44440 1890 ft 187 kts 38°
2026-04-28 20:15 -43.55499 172.45563 1650 ft 175 kts 37°
2026-04-28 20:15 -43.54619 172.46585 1435 ft 157 kts 37°
2026-04-28 20:15 -43.53810 172.47523 1223 ft 149 kts 38°
2026-04-28 20:16 -43.53029 172.48428 1018 ft 145 kts 38°
2026-04-28 20:16 -43.52264 172.49314 819 ft 142 kts 38°
2026-04-28 20:16 -43.51513 172.50192 626 ft 141 kts 39°
2026-04-28 20:16 -43.50761 172.51047 427 ft 140 kts 39°
2026-04-28 20:17 -43.50030 172.51898 254 ft 139 kts 39°
2026-04-28 20:17 -43.49299 172.52744 126 ft 127 kts 40°
2026-04-28 20:17 -43.48760 172.53369 113 ft 62 kts 40°
2026-04-28 20:17 -43.48571 172.53585 110 ft 25 kts 39°
2026-04-28 20:18 -43.48497 172.53748 108 ft 17 kts 70°
2026-04-28 20:18 -43.48473 172.53845 107 ft 13 kts 71°
2026-04-28 20:18 -43.48466 172.53959 107 ft 8 kts 123°
2026-04-28 20:18 -43.48519 172.53977 108 ft 9 kts 205°
2026-04-28 20:19 -43.48578 172.53912 109 ft 12 kts 220°
2026-04-28 20:19 -43.48650 172.53829 109 ft 12 kts 220°
2026-04-28 20:19 -43.48714 172.53755 108 ft 12 kts 220°
2026-04-28 20:19 -43.48754 172.53708 107 ft 7 kts 219°
2026-04-28 20:20 -43.48775 172.53713 108 ft 4 kts 147°
2026-04-28 20:20 -43.48800 172.53752 108 ft 7 kts 128°
2026-04-28 20:20 -43.48830 172.53802 108 ft 5 kts 131°
2026-04-28 20:20 -43.48837 172.53813 109 ft 3 kts 130°
2026-04-28 20:21 -43.48840 172.53818 108 ft 0 kts 130°